ENT8BC LEPA-EPWA

Flight info

Callsign ENT8BC
Flight time 2h 27m
Altitude 34000
Route ISTER DCT NIVDA DCT OMEDA DCT RAPUR DCT TORTU DCT ERTEV DCT MALUG/N0442F350 DCT INGID DCT GAMLI DCT STO DCT LEDVA DCT NETIR DCT USALO DCT KOTEK DCT LOGDA
Aircraft B738/M-VOLDFGIRWYHJ1X/EB1

Departure

Time 2026-05-06 13:53
Airport Palma de Mallorca Airport (LEPA)

Arrival

Time 2026-05-06 16:20
Airport Warsaw Chopin Airport (EPWA)
Time Latitude Longitude Altitude Speed Heading
2026-05-06 13:22 39.55020 2.73489 35 ft 0 kts 165°
2026-05-06 13:43 39.55021 2.73489 65 ft 1 kts 165°
2026-05-06 13:43 39.55034 2.73484 35 ft 3 kts 165°
2026-05-06 13:43 39.55054 2.73477 35 ft 3 kts 165°
2026-05-06 13:44 39.55072 2.73470 37 ft 3 kts 164°
2026-05-06 13:44 39.55090 2.73461 36 ft 3 kts 140°
2026-05-06 13:44 39.55100 2.73444 36 ft 3 kts 93°
2026-05-06 13:44 39.55096 2.73421 35 ft 3 kts 62°
2026-05-06 13:45 39.55090 2.73407 35 ft 1 kts 59°
2026-05-06 13:45 39.55082 2.73389 35 ft 0 kts 59°
2026-05-06 13:47 39.55083 2.73392 35 ft 3 kts 59°
2026-05-06 13:47 39.55119 2.73470 36 ft 16 kts 59°
2026-05-06 13:47 39.55177 2.73602 37 ft 13 kts 78°
2026-05-06 13:48 39.55177 2.73697 37 ft 13 kts 75°
2026-05-06 13:48 39.55108 2.73796 37 ft 19 kts 149°
2026-05-06 13:48 39.54986 2.73891 37 ft 21 kts 149°
2026-05-06 13:48 39.54864 2.73987 35 ft 20 kts 153°
2026-05-06 13:49 39.54748 2.73951 37 ft 15 kts 172°
2026-05-06 13:49 39.54670 2.73874 36 ft 15 kts 238°
2026-05-06 13:49 39.54614 2.73757 37 ft 17 kts 238°
2026-05-06 13:49 39.54545 2.73611 37 ft 21 kts 238°
2026-05-06 13:50 39.54458 2.73428 37 ft 26 kts 238°
2026-05-06 13:50 39.54370 2.73240 37 ft 21 kts 239°
2026-05-06 13:50 39.54292 2.73176 37 ft 9 kts 153°
2026-05-06 13:50 39.54269 2.73222 37 ft 0 kts 101°
2026-05-06 13:51 39.54269 2.73223 37 ft 0 kts 99°
2026-05-06 13:51 39.54269 2.73274 37 ft 11 kts 88°
2026-05-06 13:51 39.54267 2.73389 37 ft 13 kts 91°
2026-05-06 13:52 39.54291 2.73518 37 ft 17 kts 58°
2026-05-06 13:52 39.54443 2.73842 36 ft 77 kts 58°
2026-05-06 13:52 39.54837 2.74674 37 ft 138 kts 59°
2026-05-06 13:52 39.55413 2.75913 243 ft 171 kts 60°
2026-05-06 13:53 39.56038 2.77232 1003 ft 175 kts 59°
2026-05-06 13:53 39.56694 2.78627 1577 ft 193 kts 59°
2026-05-06 13:53 39.57436 2.80206 1978 ft 212 kts 59°
2026-05-06 13:53 39.58216 2.81868 2588 ft 218 kts 59°
2026-05-06 13:54 39.59012 2.83562 3289 ft 221 kts 59°
2026-05-06 13:54 39.59824 2.85291 3915 ft 229 kts 58°
2026-05-06 13:54 39.60652 2.87054 4662 ft 232 kts 58°
2026-05-06 13:54 39.61498 2.88860 5376 ft 238 kts 58°
2026-05-06 13:55 39.62370 2.90725 6041 ft 245 kts 58°
2026-05-06 13:55 39.63279 2.92721 6329 ft 271 kts 59°
2026-05-06 13:55 39.64256 2.94882 6891 ft 282 kts 59°
2026-05-06 13:55 39.65263 2.97106 7569 ft 288 kts 59°
2026-05-06 13:56 39.66275 2.99352 8373 ft 291 kts 59°
2026-05-06 13:56 39.67297 3.01643 9116 ft 295 kts 59°
2026-05-06 13:56 39.68322 3.03980 9858 ft 300 kts 59°
2026-05-06 13:56 39.69366 3.06380 10348 ft 314 kts 60°
2026-05-06 13:57 39.70468 3.08953 10521 ft 338 kts 60°
2026-05-06 13:57 39.71245 3.10736 10705 ft 349 kts 59°
2026-05-06 13:57 39.72515 3.13489 11255 ft 358 kts 58°
2026-05-06 13:57 39.73823 3.16260 11939 ft 362 kts 57°
2026-05-06 13:58 39.75151 3.19064 12634 ft 366 kts 58°
2026-05-06 13:58 39.76494 3.21907 13283 ft 372 kts 58°
2026-05-06 13:58 39.77855 3.24802 13904 ft 378 kts 58°
2026-05-06 13:58 39.79230 3.27742 14500 ft 382 kts 58°
2026-05-06 13:59 39.80615 3.30711 15103 ft 386 kts 58°
2026-05-06 13:59 39.82015 3.33722 15685 ft 391 kts 58°
2026-05-06 13:59 39.83430 3.36770 16257 ft 396 kts 58°
2026-05-06 13:59 39.84863 3.39861 16844 ft 401 kts 58°
2026-05-06 14:00 39.86313 3.42994 17422 ft 405 kts 58°
2026-05-06 14:00 39.87771 3.46147 17992 ft 410 kts 58°
2026-05-06 14:00 39.89248 3.49347 18520 ft 414 kts 58°
2026-05-06 14:00 39.90737 3.52573 19027 ft 417 kts 58°
2026-05-06 14:01 39.92239 3.55832 19529 ft 421 kts 59°
2026-05-06 14:01 39.93755 3.59125 20005 ft 425 kts 59°
2026-05-06 14:01 39.95262 3.62403 20478 ft 429 kts 59°
2026-05-06 14:01 39.96805 3.65762 20960 ft 433 kts 59°
2026-05-06 14:02 39.98358 3.69145 21446 ft 437 kts 59°
2026-05-06 14:02 39.99922 3.72557 21913 ft 440 kts 59°
2026-05-06 14:02 40.01500 3.76002 22372 ft 444 kts 59°
2026-05-06 14:02 40.03091 3.79481 22830 ft 448 kts 59°
2026-05-06 14:03 40.04695 3.82991 23255 ft 452 kts 59°
2026-05-06 14:03 40.06312 3.86533 23673 ft 456 kts 59°
2026-05-06 14:03 40.07941 3.90106 24059 ft 458 kts 59°
2026-05-06 14:03 40.09572 3.93690 24436 ft 461 kts 59°
2026-05-06 14:04 40.11215 3.97302 24814 ft 464 kts 59°
2026-05-06 14:04 40.12870 4.00944 25181 ft 467 kts 59°
2026-05-06 14:04 40.14530 4.04602 25556 ft 469 kts 59°
2026-05-06 14:04 40.16193 4.08272 25923 ft 471 kts 59°
2026-05-06 14:05 40.17872 4.11981 26266 ft 474 kts 59°
2026-05-06 14:05 40.19557 4.15708 26593 ft 477 kts 59°
2026-05-06 14:05 40.21248 4.19452 26937 ft 480 kts 59°
2026-05-06 14:05 40.22949 4.23222 27279 ft 482 kts 59°
2026-05-06 14:06 40.24657 4.27015 27600 ft 485 kts 59°
2026-05-06 14:06 40.26344 4.30763 27923 ft 487 kts 59°
2026-05-06 14:06 40.28066 4.34595 28242 ft 489 kts 59°
2026-05-06 14:06 40.29797 4.38451 28553 ft 492 kts 59°
2026-05-06 14:07 40.31534 4.42326 28860 ft 494 kts 59°
2026-05-06 14:07 40.33274 4.46214 29162 ft 496 kts 59°
2026-05-06 14:07 40.35027 4.50134 29450 ft 498 kts 60°
2026-05-06 14:07 40.36788 4.54077 29738 ft 501 kts 60°
2026-05-06 14:08 40.38550 4.58029 30013 ft 503 kts 60°
2026-05-06 14:08 40.40316 4.61992 30257 ft 504 kts 60°
2026-05-06 14:08 40.42085 4.65969 30590 ft 504 kts 60°
2026-05-06 14:08 40.43848 4.69938 30957 ft 502 kts 60°
2026-05-06 14:09 40.45603 4.73892 31300 ft 501 kts 60°
2026-05-06 14:09 40.47356 4.77848 31584 ft 501 kts 60°
2026-05-06 14:09 40.49110 4.81813 31859 ft 502 kts 60°
2026-05-06 14:09 40.50863 4.85779 32173 ft 501 kts 60°
2026-05-06 14:10 40.52608 4.89733 32477 ft 500 kts 60°
2026-05-06 14:10 40.54330 4.93638 32778 ft 500 kts 60°
2026-05-06 14:10 40.56077 4.97606 33052 ft 500 kts 60°
2026-05-06 14:10 40.57815 5.01559 33341 ft 499 kts 60°
2026-05-06 14:11 40.59570 5.05557 33650 ft 498 kts 60°
2026-05-06 14:11 40.61283 5.09461 33938 ft 498 kts 60°
2026-05-06 14:11 40.64770 5.17428 33964 ft 503 kts 60°
2026-05-06 14:12 40.68249 5.25398 33939 ft 499 kts 60°
2026-05-06 14:12 40.71684 5.33286 33964 ft 495 kts 60°
2026-05-06 14:13 40.75103 5.41159 33960 ft 494 kts 60°
2026-05-06 14:13 40.78518 5.49042 33951 ft 494 kts 60°
2026-05-06 14:14 40.81899 5.56869 33960 ft 494 kts 60°
2026-05-06 14:14 40.85299 5.64759 33956 ft 494 kts 61°
2026-05-06 14:15 40.88696 5.72663 33954 ft 495 kts 61°
2026-05-06 14:15 40.92091 5.80582 33956 ft 496 kts 61°
2026-05-06 14:16 40.95489 5.88529 33960 ft 497 kts 61°
2026-05-06 14:16 40.98889 5.96502 33959 ft 497 kts 61°
2026-05-06 14:17 41.02283 6.04485 33958 ft 498 kts 61°
2026-05-06 14:17 41.05682 6.12498 33950 ft 499 kts 61°
2026-05-06 14:18 41.09072 6.20510 33958 ft 499 kts 62°
2026-05-06 14:18 41.12457 6.28534 33966 ft 499 kts 62°
2026-05-06 14:19 41.15841 6.36577 33954 ft 498 kts 62°
2026-05-06 14:19 41.19217 6.44623 33957 ft 498 kts 62°
2026-05-06 14:20 41.22577 6.52651 33952 ft 497 kts 62°
2026-05-06 14:20 41.26329 6.60356 33953 ft 497 kts 51°
2026-05-06 14:21 41.30724 6.67364 33953 ft 497 kts 49°
2026-05-06 14:21 41.35217 6.74427 33962 ft 496 kts 50°
2026-05-06 14:22 41.39616 6.81457 33958 ft 496 kts 50°
2026-05-06 14:22 41.44002 6.88551 33950 ft 496 kts 51°
2026-05-06 14:23 41.48382 6.95666 33952 ft 496 kts 51°
2026-05-06 14:23 41.52755 7.02784 33952 ft 496 kts 51°
2026-05-06 14:24 41.57131 7.09920 33947 ft 496 kts 51°
2026-05-06 14:24 41.61500 7.17060 33957 ft 496 kts 51°
2026-05-06 14:25 41.65870 7.24216 33947 ft 497 kts 51°
2026-05-06 14:25 41.70239 7.31391 33959 ft 497 kts 51°
2026-05-06 14:26 41.74576 7.38528 33953 ft 497 kts 51°
2026-05-06 14:26 41.78619 7.45199 33954 ft 498 kts 51°
2026-05-06 14:27 41.82965 7.52383 33950 ft 498 kts 51°
2026-05-06 14:27 41.87347 7.59646 33953 ft 498 kts 52°
2026-05-06 14:28 41.91677 7.66840 33944 ft 498 kts 52°
2026-05-06 14:28 41.96046 7.74116 33954 ft 498 kts 52°
2026-05-06 14:29 42.00386 7.81362 33945 ft 499 kts 52°
2026-05-06 14:29 42.04738 7.88645 33948 ft 499 kts 52°
2026-05-06 14:30 42.09053 7.95884 33943 ft 499 kts 52°
2026-05-06 14:30 42.13399 8.03191 33950 ft 499 kts 52°
2026-05-06 14:31 42.17188 8.09578 33947 ft 499 kts 52°
2026-05-06 14:31 42.21510 8.16882 33942 ft 499 kts 52°
2026-05-06 14:32 42.25804 8.24154 33944 ft 499 kts 52°
2026-05-06 14:32 42.30153 8.31450 33932 ft 499 kts 48°
2026-05-06 14:33 42.35483 8.37403 33942 ft 497 kts 30°
2026-05-06 14:33 42.41723 8.41315 33949 ft 493 kts 19°
2026-05-06 14:34 42.48125 8.44723 33938 ft 494 kts 19°
2026-05-06 14:34 42.54514 8.48191 33933 ft 495 kts 19°
2026-05-06 14:35 42.60893 8.51736 33931 ft 495 kts 19°
2026-05-06 14:35 42.67229 8.55283 33943 ft 496 kts 19°
2026-05-06 14:36 42.73621 8.58864 33935 ft 496 kts 19°
2026-05-06 14:36 42.80009 8.62448 33931 ft 497 kts 19°
2026-05-06 14:37 42.86406 8.66044 33926 ft 498 kts 19°
2026-05-06 14:37 42.92819 8.69656 33920 ft 498 kts 19°
2026-05-06 14:38 42.99241 8.73283 33916 ft 499 kts 19°
2026-05-06 14:38 43.05627 8.76898 33919 ft 499 kts 19°
2026-05-06 14:39 43.12047 8.80541 33913 ft 499 kts 19°
2026-05-06 14:39 43.18465 8.84191 33912 ft 499 kts 19°
2026-05-06 14:40 43.24890 8.87854 33906 ft 500 kts 19°
2026-05-06 14:40 43.31313 8.91524 33902 ft 500 kts 19°
2026-05-06 14:41 43.37787 8.94905 33893 ft 495 kts 10°
2026-05-06 14:41 43.44522 8.96037 33904 ft 483 kts 353°
2026-05-06 14:42 43.50097 8.95899 33898 ft 483 kts 353°
2026-05-06 14:42 43.56829 8.95815 33895 ft 485 kts 354°
2026-05-06 14:43 43.63565 8.97066 33895 ft 499 kts 16°
2026-05-06 14:43 43.66749 8.99029 33884 ft 504 kts 28°
2026-05-06 14:43 43.69618 9.01834 33900 ft 505 kts 38°
2026-05-06 14:44 43.75082 9.08009 33889 ft 507 kts 39°
2026-05-06 14:45 43.83268 9.17361 33891 ft 509 kts 38°
2026-05-06 14:45 43.88775 9.23536 33888 ft 510 kts 38°
2026-05-06 14:46 43.94271 9.29670 33889 ft 510 kts 38°
2026-05-06 14:46 43.99790 9.35844 33882 ft 510 kts 38°
2026-05-06 14:47 44.05311 9.42042 33890 ft 509 kts 38°
2026-05-06 14:47 44.10823 9.48248 33896 ft 508 kts 38°
2026-05-06 14:48 44.16313 9.54446 33900 ft 507 kts 38°
2026-05-06 14:48 44.21781 9.60634 33897 ft 506 kts 38°
2026-05-06 14:49 44.27203 9.66784 33894 ft 505 kts 38°
2026-05-06 14:49 44.32638 9.72965 33899 ft 504 kts 38°
2026-05-06 14:50 44.38068 9.79155 33893 ft 502 kts 39°
2026-05-06 14:50 44.43473 9.85332 33901 ft 502 kts 39°
2026-05-06 14:51 44.48878 9.91523 33899 ft 503 kts 39°
2026-05-06 14:51 44.54310 9.97762 33893 ft 503 kts 39°
2026-05-06 14:52 44.59696 10.03962 33884 ft 504 kts 39°
2026-05-06 14:52 44.65110 10.10211 33881 ft 504 kts 39°
2026-05-06 14:53 44.70542 10.16497 33866 ft 506 kts 39°
2026-05-06 14:53 44.75976 10.22800 33862 ft 507 kts 39°
2026-05-06 14:54 44.81418 10.29128 33857 ft 507 kts 39°
2026-05-06 14:54 44.86868 10.35482 33862 ft 508 kts 39°
2026-05-06 14:55 44.92308 10.41840 33856 ft 508 kts 39°
2026-05-06 14:55 44.97746 10.48212 33860 ft 508 kts 39°
2026-05-06 14:56 45.03097 10.54499 33862 ft 507 kts 39°
2026-05-06 14:56 45.08583 10.60961 33868 ft 506 kts 39°
2026-05-06 14:57 45.13993 10.67349 33874 ft 505 kts 39°
2026-05-06 14:57 45.19385 10.73731 33879 ft 505 kts 39°
2026-05-06 14:58 45.24773 10.80125 33862 ft 505 kts 39°
2026-05-06 14:58 45.30153 10.86527 33866 ft 505 kts 39°
2026-05-06 14:59 45.35498 10.92903 33869 ft 505 kts 39°
2026-05-06 14:59 45.40882 10.99343 33866 ft 506 kts 39°
2026-05-06 15:00 45.46283 11.05819 33865 ft 508 kts 39°
2026-05-06 15:00 45.51692 11.12322 33866 ft 509 kts 39°
2026-05-06 15:01 45.57114 11.18856 33889 ft 510 kts 40°
2026-05-06 15:01 45.62537 11.25411 33892 ft 511 kts 39°
2026-05-06 15:02 45.67956 11.31976 33917 ft 511 kts 40°
2026-05-06 15:02 45.73385 11.38571 33906 ft 510 kts 40°
2026-05-06 15:03 45.78794 11.45161 33901 ft 511 kts 40°
2026-05-06 15:03 45.84190 11.51751 33904 ft 509 kts 40°
2026-05-06 15:04 45.89560 11.58328 33912 ft 507 kts 40°
2026-05-06 15:04 45.94896 11.64878 33908 ft 506 kts 40°
2026-05-06 15:05 46.00238 11.71454 33887 ft 506 kts 40°
2026-05-06 15:05 46.05571 11.78037 33912 ft 503 kts 40°
2026-05-06 15:06 46.10878 11.84605 33896 ft 503 kts 40°
2026-05-06 15:06 46.16163 11.91162 33907 ft 501 kts 40°
2026-05-06 15:07 46.21440 11.97726 33883 ft 499 kts 40°
2026-05-06 15:07 46.26697 12.04283 33879 ft 499 kts 40°
2026-05-06 15:08 46.31950 12.10852 33894 ft 500 kts 40°
2026-05-06 15:08 46.37176 12.17405 33905 ft 499 kts 40°
2026-05-06 15:09 46.42428 12.24008 33878 ft 500 kts 40°
2026-05-06 15:09 46.47691 12.30643 33860 ft 501 kts 40°
2026-05-06 15:10 46.52951 12.37293 33871 ft 501 kts 40°
2026-05-06 15:10 46.58201 12.43946 33934 ft 502 kts 40°
2026-05-06 15:11 46.63491 12.50669 34230 ft 506 kts 40°
2026-05-06 15:11 46.66134 12.54035 34606 ft 503 kts 40°
2026-05-06 15:11 46.68759 12.57381 34880 ft 500 kts 40°
2026-05-06 15:12 46.73449 12.64761 34893 ft 499 kts 53°
2026-05-06 15:12 46.77613 12.72825 34844 ft 494 kts 54°
2026-05-06 15:13 46.81734 12.80867 34850 ft 490 kts 54°
2026-05-06 15:13 46.85835 12.88779 34845 ft 491 kts 53°
2026-05-06 15:14 46.89983 12.96739 34844 ft 493 kts 53°
2026-05-06 15:14 46.94136 13.04723 34827 ft 493 kts 53°
2026-05-06 15:15 46.98291 13.12739 34817 ft 495 kts 53°
2026-05-06 15:15 47.02442 13.20774 34832 ft 494 kts 53°
2026-05-06 15:16 47.06592 13.28832 34814 ft 496 kts 53°
2026-05-06 15:16 47.10741 13.36911 34806 ft 495 kts 53°
2026-05-06 15:17 47.14876 13.44988 34813 ft 495 kts 53°
2026-05-06 15:17 47.19002 13.53070 34824 ft 495 kts 53°
2026-05-06 15:18 47.23126 13.61172 34815 ft 495 kts 54°
2026-05-06 15:18 47.27265 13.69273 34819 ft 495 kts 52°
2026-05-06 15:19 47.31732 13.77025 34796 ft 496 kts 48°
2026-05-06 15:19 47.36304 13.84556 34814 ft 496 kts 48°
2026-05-06 15:20 47.40825 13.92086 34836 ft 494 kts 49°
2026-05-06 15:20 47.45352 13.99744 34804 ft 495 kts 49°
2026-05-06 15:21 47.49865 14.07431 34813 ft 495 kts 49°
2026-05-06 15:21 47.54380 14.15142 34791 ft 496 kts 49°
2026-05-06 15:22 47.58892 14.22866 34799 ft 496 kts 49°
2026-05-06 15:22 47.63377 14.30564 34782 ft 496 kts 49°
2026-05-06 15:23 47.67889 14.38329 34781 ft 496 kts 49°
2026-05-06 15:23 47.72385 14.46089 34775 ft 496 kts 49°
2026-05-06 15:24 47.76790 14.53717 34780 ft 495 kts 49°
2026-05-06 15:24 47.80514 14.60182 34772 ft 494 kts 49°
2026-05-06 15:25 47.84989 14.67972 34757 ft 495 kts 49°
2026-05-06 15:25 47.89464 14.75779 34710 ft 496 kts 49°
2026-05-06 15:26 47.93452 14.84135 34738 ft 495 kts 59°
2026-05-06 15:26 47.97073 14.92923 34737 ft 497 kts 59°
2026-05-06 15:27 48.00683 15.01731 34740 ft 498 kts 59°
2026-05-06 15:27 48.04336 15.10550 34729 ft 499 kts 59°
2026-05-06 15:28 48.08010 15.19387 34746 ft 499 kts 59°
2026-05-06 15:28 48.11673 15.28222 34730 ft 500 kts 59°
2026-05-06 15:29 48.15331 15.37080 34738 ft 500 kts 59°
2026-05-06 15:29 48.18961 15.45904 34731 ft 500 kts 59°
2026-05-06 15:30 48.22603 15.54787 34735 ft 499 kts 59°
2026-05-06 15:30 48.26233 15.63670 34731 ft 498 kts 59°
2026-05-06 15:31 48.29839 15.72523 34726 ft 497 kts 59°
2026-05-06 15:31 48.33445 15.81405 34729 ft 496 kts 59°
2026-05-06 15:32 48.38818 15.94694 34727 ft 495 kts 59°
2026-05-06 15:32 48.42384 16.03542 34733 ft 494 kts 59°
2026-05-06 15:33 48.45981 16.12349 34734 ft 494 kts 58°
2026-05-06 15:33 48.49569 16.21104 34736 ft 493 kts 58°
2026-05-06 15:34 48.53162 16.29919 34742 ft 493 kts 58°
2026-05-06 15:34 48.56743 16.38750 34735 ft 493 kts 58°
2026-05-06 15:35 48.60315 16.47591 34742 ft 493 kts 58°
2026-05-06 15:35 48.63888 16.56461 34749 ft 494 kts 58°
2026-05-06 15:36 48.67453 16.65344 34750 ft 494 kts 58°
2026-05-06 15:36 48.71021 16.74259 34761 ft 495 kts 58°
2026-05-06 15:37 48.74830 16.82931 34767 ft 494 kts 51°
2026-05-06 15:37 48.79066 16.91029 34765 ft 494 kts 50°
2026-05-06 15:38 48.83369 16.99170 34770 ft 495 kts 50°
2026-05-06 15:38 48.87641 17.07366 34784 ft 495 kts 50°
2026-05-06 15:39 48.91893 17.15615 34790 ft 495 kts 50°
2026-05-06 15:39 48.96122 17.23857 34795 ft 495 kts 50°
2026-05-06 15:40 49.00350 17.32121 34803 ft 494 kts 50°
2026-05-06 15:40 49.04567 17.40387 34805 ft 493 kts 50°
2026-05-06 15:41 49.08773 17.48654 34801 ft 493 kts 50°
2026-05-06 15:41 49.12975 17.56936 34802 ft 493 kts 50°
2026-05-06 15:42 49.17163 17.65220 34803 ft 492 kts 50°
2026-05-06 15:42 49.21340 17.73506 34805 ft 492 kts 50°
2026-05-06 15:43 49.25510 17.81804 34813 ft 492 kts 50°
2026-05-06 15:43 49.29675 17.90119 34821 ft 491 kts 51°
2026-05-06 15:44 49.33835 17.98451 34811 ft 491 kts 51°
2026-05-06 15:44 49.37990 18.06797 34825 ft 491 kts 51°
2026-05-06 15:45 49.42091 18.15062 34821 ft 491 kts 51°
2026-05-06 15:45 49.46217 18.23401 34821 ft 490 kts 51°
2026-05-06 15:46 49.50336 18.31753 34834 ft 489 kts 51°
2026-05-06 15:46 49.54442 18.40107 34813 ft 488 kts 51°
2026-05-06 15:47 49.58530 18.48449 34820 ft 488 kts 51°
2026-05-06 15:47 49.62592 18.56763 34820 ft 487 kts 51°
2026-05-06 15:48 49.66664 18.65125 34829 ft 487 kts 51°
2026-05-06 15:48 49.70921 18.73219 34833 ft 483 kts 41°
2026-05-06 15:49 49.75834 18.80262 34835 ft 482 kts 39°
2026-05-06 15:49 49.80792 18.87257 34845 ft 482 kts 40°
2026-05-06 15:50 49.85654 18.94269 34833 ft 482 kts 40°
2026-05-06 15:50 49.90592 19.01460 34845 ft 482 kts 40°
2026-05-06 15:51 49.95423 19.08603 34826 ft 482 kts 43°
2026-05-06 15:51 50.00021 19.16101 34825 ft 475 kts 45°
2026-05-06 15:52 50.04518 19.23649 34690 ft 477 kts 45°
2026-05-06 15:52 50.06778 19.27429 34329 ft 474 kts 45°
2026-05-06 15:52 50.09019 19.31162 33951 ft 470 kts 44°
2026-05-06 15:53 50.11240 19.34853 33521 ft 466 kts 44°
2026-05-06 15:53 50.13459 19.38537 33084 ft 463 kts 44°
2026-05-06 15:53 50.15661 19.42193 32687 ft 459 kts 45°
2026-05-06 15:53 50.17838 19.45813 32287 ft 455 kts 45°
2026-05-06 15:54 50.19966 19.49356 31874 ft 452 kts 45°
2026-05-06 15:54 50.22105 19.52923 31486 ft 449 kts 45°
2026-05-06 15:54 50.24088 19.56236 31140 ft 446 kts 45°
2026-05-06 15:54 50.26085 19.59575 30776 ft 444 kts 46°
2026-05-06 15:55 50.28188 19.63100 30396 ft 441 kts 46°
2026-05-06 15:55 50.30276 19.66603 30017 ft 438 kts 46°
2026-05-06 15:55 50.32351 19.70089 29601 ft 436 kts 46°
2026-05-06 15:55 50.34411 19.73554 29170 ft 433 kts 46°
2026-05-06 15:56 50.36451 19.76990 28795 ft 429 kts 46°
2026-05-06 15:56 50.38474 19.80404 28401 ft 425 kts 46°
2026-05-06 15:56 50.40480 19.83793 27995 ft 422 kts 47°
2026-05-06 15:56 50.42468 19.87155 27610 ft 418 kts 47°
2026-05-06 15:57 50.44439 19.90493 27228 ft 415 kts 47°
2026-05-06 15:57 50.46373 19.93773 26844 ft 413 kts 47°
2026-05-06 15:57 50.48319 19.97078 26464 ft 410 kts 47°
2026-05-06 15:57 50.50246 20.00354 26083 ft 407 kts 47°
2026-05-06 15:58 50.52164 20.03620 25709 ft 405 kts 47°
2026-05-06 15:58 50.54070 20.06869 25333 ft 403 kts 47°
2026-05-06 15:58 50.55961 20.10098 24957 ft 401 kts 47°
2026-05-06 15:58 50.57843 20.13315 24594 ft 398 kts 47°
2026-05-06 15:59 50.59711 20.16510 24225 ft 397 kts 48°
2026-05-06 15:59 50.61577 20.19707 23854 ft 395 kts 48°
2026-05-06 15:59 50.63457 20.22827 23463 ft 395 kts 42°
2026-05-06 15:59 50.65619 20.25498 23051 ft 392 kts 32°
2026-05-06 16:00 50.67985 20.27518 22785 ft 385 kts 23°
2026-05-06 16:00 50.70435 20.29222 22395 ft 382 kts 21°
2026-05-06 16:00 50.72879 20.30856 22018 ft 380 kts 21°
2026-05-06 16:00 50.75309 20.32473 21650 ft 377 kts 20°
2026-05-06 16:01 50.77720 20.34090 21282 ft 375 kts 21°
2026-05-06 16:01 50.80114 20.35713 20915 ft 373 kts 21°
2026-05-06 16:01 50.82467 20.37320 20556 ft 372 kts 21°
2026-05-06 16:01 50.84833 20.38946 20191 ft 370 kts 21°
2026-05-06 16:02 50.87195 20.40575 19839 ft 371 kts 21°
2026-05-06 16:02 50.89566 20.42215 19473 ft 372 kts 21°
2026-05-06 16:02 50.91935 20.43854 19088 ft 372 kts 21°
2026-05-06 16:02 50.94301 20.45495 18718 ft 371 kts 21°
2026-05-06 16:03 50.96665 20.47138 18337 ft 371 kts 21°
2026-05-06 16:03 50.99032 20.48783 17931 ft 371 kts 21°
2026-05-06 16:03 51.01394 20.50427 17538 ft 370 kts 21°
2026-05-06 16:03 51.03744 20.52066 17152 ft 368 kts 21°
2026-05-06 16:04 51.06087 20.53700 16786 ft 366 kts 21°
2026-05-06 16:04 51.08409 20.55322 16420 ft 364 kts 21°
2026-05-06 16:04 51.10720 20.56937 16061 ft 362 kts 21°
2026-05-06 16:04 51.13021 20.58547 15704 ft 360 kts 21°
2026-05-06 16:05 51.15311 20.60152 15344 ft 358 kts 21°
2026-05-06 16:05 51.17583 20.61746 14991 ft 357 kts 21°
2026-05-06 16:05 51.19847 20.63335 14642 ft 355 kts 21°
2026-05-06 16:05 51.22084 20.64908 14271 ft 348 kts 21°
2026-05-06 16:06 51.24294 20.66463 13943 ft 346 kts 21°
2026-05-06 16:06 51.26513 20.67927 13523 ft 347 kts 18°
2026-05-06 16:06 51.28782 20.69215 13127 ft 345 kts 16°
2026-05-06 16:06 51.31054 20.70440 12750 ft 343 kts 16°
2026-05-06 16:07 51.33315 20.71651 12394 ft 341 kts 16°
2026-05-06 16:07 51.35553 20.72860 12050 ft 339 kts 16°
2026-05-06 16:07 51.37752 20.74060 11709 ft 337 kts 16°
2026-05-06 16:07 51.39959 20.75275 11368 ft 335 kts 16°
2026-05-06 16:08 51.42156 20.76492 11031 ft 333 kts 17°
2026-05-06 16:08 51.44342 20.77710 10694 ft 331 kts 16°
2026-05-06 16:08 51.46510 20.78920 10366 ft 330 kts 16°
2026-05-06 16:08 51.48671 20.80129 10077 ft 326 kts 17°
2026-05-06 16:09 51.50788 20.81317 9941 ft 318 kts 16°
2026-05-06 16:09 51.52850 20.82476 9789 ft 311 kts 16°
2026-05-06 16:09 51.54218 20.83246 9734 ft 304 kts 16°
2026-05-06 16:09 51.56207 20.84365 9317 ft 304 kts 16°
2026-05-06 16:10 51.58172 20.85470 9030 ft 296 kts 16°
2026-05-06 16:10 51.60074 20.86541 8709 ft 289 kts 16°
2026-05-06 16:10 51.61971 20.87610 8415 ft 282 kts 16°
2026-05-06 16:10 51.63789 20.88636 8148 ft 279 kts 17°
2026-05-06 16:11 51.65610 20.89664 7949 ft 277 kts 17°
2026-05-06 16:11 51.67460 20.90707 7703 ft 285 kts 17°
2026-05-06 16:11 51.69358 20.91778 7434 ft 290 kts 17°
2026-05-06 16:11 51.71254 20.92851 7129 ft 286 kts 17°
2026-05-06 16:12 51.73123 20.93912 6862 ft 284 kts 17°
2026-05-06 16:12 51.74988 20.94970 6611 ft 283 kts 17°
2026-05-06 16:12 51.76835 20.96018 6382 ft 280 kts 17°
2026-05-06 16:12 51.78670 20.97062 6137 ft 279 kts 17°
2026-05-06 16:13 51.80501 20.98104 5862 ft 279 kts 17°
2026-05-06 16:13 51.82324 20.99141 5584 ft 278 kts 18°
2026-05-06 16:13 51.84149 21.00180 5311 ft 277 kts 18°
2026-05-06 16:13 51.85966 21.01216 5087 ft 275 kts 18°
2026-05-06 16:14 51.87742 21.02232 4956 ft 268 kts 18°
2026-05-06 16:14 51.89482 21.03226 4833 ft 262 kts 18°
2026-05-06 16:14 51.91189 21.04203 4728 ft 259 kts 17°
2026-05-06 16:14 51.92899 21.05181 4623 ft 261 kts 18°
2026-05-06 16:15 51.94637 21.06175 4400 ft 270 kts 18°
2026-05-06 16:15 51.96431 21.07198 4114 ft 276 kts 18°
2026-05-06 16:15 51.98248 21.08240 3812 ft 277 kts 18°
2026-05-06 16:15 52.00055 21.09268 3536 ft 272 kts 15°
2026-05-06 16:16 52.01856 21.09412 3261 ft 257 kts 341°
2026-05-06 16:16 52.03453 21.08310 2990 ft 243 kts 329°
2026-05-06 16:16 52.04873 21.07030 2710 ft 231 kts 327°
2026-05-06 16:16 52.06269 21.05773 2412 ft 222 kts 328°
2026-05-06 16:17 52.07577 21.04626 2129 ft 209 kts 328°
2026-05-06 16:17 52.08809 21.03543 1865 ft 194 kts 328°
2026-05-06 16:17 52.09959 21.02535 1624 ft 179 kts 328°
2026-05-06 16:17 52.11004 21.01614 1397 ft 163 kts 328°
2026-05-06 16:18 52.11979 21.00756 1170 ft 154 kts 326°
2026-05-06 16:18 52.12910 20.99937 984 ft 150 kts 329°
2026-05-06 16:18 52.13822 20.99135 750 ft 146 kts 328°
2026-05-06 16:18 52.14711 20.98358 545 ft 145 kts 328°
2026-05-06 16:19 52.15610 20.97566 369 ft 149 kts 327°
2026-05-06 16:19 52.16465 20.96804 335 ft 125 kts 332°
2026-05-06 16:19 52.17127 20.96228 333 ft 90 kts 332°
2026-05-06 16:19 52.17578 20.95835 338 ft 57 kts 331°
2026-05-06 16:20 52.17829 20.95633 333 ft 27 kts
2026-05-06 16:20 52.17902 20.95745 336 ft 0 kts 62°
2026-05-06 16:21 52.17904 20.95748 336 ft 2 kts 62°
2026-05-06 16:21 52.17923 20.95806 335 ft 8 kts 59°
2026-05-06 16:21 52.17951 20.95883 334 ft 8 kts 60°
2026-05-06 16:21 52.17976 20.95953 337 ft 6 kts 60°
2026-05-06 16:22 52.17995 20.96007 335 ft 2 kts 60°
2026-05-06 16:22 52.17998 20.96021 336 ft 0 kts 68°
2026-05-06 16:23 52.18000 20.96028 335 ft 3 kts 69°
2026-05-06 16:23 52.17987 20.96055 338 ft 3 kts 165°
2026-05-06 16:23 52.17967 20.96063 336 ft 2 kts 167°
2026-05-06 16:23 52.17957 20.96067 337 ft 0 kts 167°